User: anonymous   Login
Location: Bégole
(43.1574°N, 0.3291°E)
Time: 22:53:00
(UTC+00:00)
Language:

Meteor 1-12 Rocket - Orbit

View from above orbital plane
View from above orbital plane
View from above satellite
View from above satellite

Ground track
Ground track

The orbit data is extracted from the following two-line orbital elements,

1 06080U 72049B   24051.78712655  .00000165  00000-0  10116-3 0  9993
2 06080  81.2420 166.2179 0047953 268.1088  91.4586 14.01080136638527
Epoch (UTC): 20 February 2024 18:53:27
Eccentricity: 0.0047953
inclination: 81.2420°
perigee height: 855 km
apogee height: 925 km
right ascension of ascending node: 166.2179°
argument of perigee: 268.1088°
revolutions per day: 14.01080136
mean anomaly at epoch: 91.4586°
orbit number at epoch: 63852

The dashed part of the orbit path shows where the satellite is in the earth's shadow,  

DLR